Temperature
17 16 15 15 14 14 14 13 13 13 13 13 13 13 13 13 13 13 13 13 13 12 12 13 13 13 13 13 13 13 13 13 14 14 14 14 14 14 14 14 15 15 15
17 16 16 15 14 14 14 13 13 13 13 13 13 13 13 13 13 13 13 13 13 13 13 13 13 13 13 13 13 13 13 13 13 13 13 13 13 14 14 14 14 14 15
17 16 16 15 15 14 14 14 13 13 13 13 13 13 13 13 13 13 13 13 13 13 13 13 13 13 13 13 13 13 13 13 13 13 13 13 13 13 13 14 14 14 14
16 16 16 15 15 15 14 14 13 13 13 13 13 13 13 13 13 13 13 13 13 13 13 13 13 13 13 13 13 13 13 13 13 13 13 13 13 13 13 13 13 13 13
16 16 16 16 15 15 14 14 14 13 13 13 13 13 13 13 13 13 13 13 13 13 13 13 13 13 13 13 13 13 13 13 13 13 13 13 13 13 13 13 13 13 13
16 16 16 15 15 15 14 14 14 14 13 13 13 13 13 13 13 13 13 13 13 13 13 13 13 13 13 13 13 13 13 13 13 13 13 13 13 12 12 12 12 13 13
16 16 15 15 15 15 15 14 14 14 14 13 13 13 13 13 13 13 13 13 13 13 13 13 13 13 13 13 13 13 13 13 13 13 13 13 12 12 12 12 12 12 12
16 16 15 15 15 15 15 14 14 14 14 14 13 13 13 13 13 13 13 13 13 13 13 13 13 13 12 12 13 13 13 13 13 13 13 13 12 12 12 12 12 12 12
16 16 16 15 15 15 15 15 15 14 14 14 14 13 13 13 13 13 13 13 13 12 12 12 12 12 12 12 12 13 13 12 12 12 12 12 12 12 12 12 12 12 12
15 15 15 15 15 15 15 15 15 14 14 14 14 14 13 13 13 13 13 13 13 12 12 12 12 12 12 12 12 12 12 12 12 12 12 12 12 12 12 12 12 12 11
14 15 15 15 15 15 15 15 14 14 14 14 14 14 14 13 13 13 13 13 12 12 12 12 12 12 12 12 12 12 12 12 12 12 12 11 11 11 11 11 11 11 11
14 14 14 15 15 15 15 15 14 14 14 14 14 14 14 13 13 13 13 13 12 12 12 12 12 12 12 12 11 11 11 11 11 11 11 11 11 11 11 11 11 11 11
13 14 14 14 14 14 14 14 14 14 14 14 14 14 14 14 13 13 13 13 12 12 12 12 12 12 11 11 11 11 11 11 11 11 11 11 10 10 10 10 10 10 10
12 13 13 13 14 14 14 14 14 14 14 14 14 14 14 14 14 13 13 13 12 12 12 11 11 11 11 11 11 11 11 10 10 10 10 10 10 10 10 10 9 9 9
12 12 12 13 13 13 13 14 14 14 14 14 14 14 14 14 14 14 13 13 12 12 12 11 11 11 11 11 10 10 10 10 10 10 10 10 9 9 9 9 9 9 9
10 11 11 12 12 12 13 13 13 13 14 14 14 14 14 14 14 13 13 12 12 12 11 11 11 11 10 10 10 10 10 10 9 9 9 9 9 9 9 9 8 8 8
10 10 10 11 11 11 12 12 12 13 13 13 13 13 13 13 13 13 13 12 12 11 11 11 11 10 10 10 10 9 9 9 9 9 9 8 8 8 8 8 8 8 8
9 9 10 10 10 11 11 11 11 12 12 13 13 13 13 13 13 12 12 12 11 11 11 11 10 10 10 10 9 9 9 9 8 8 8 8 8 8 8 8 7 7 7
9 9 9 9 9 10 10 10 10 11 11 12 12 13 13 12 12 12 11 11 11 11 11 10 10 10 10 9 9 9 9 8 8 8 8 7 7 7 7 7 7 6 6
8 8 8 9 9 9 9 10 10 10 10 10 11 12 12 12 12 12 11 11 11 11 11 10 10 10 9 9 9 8 8 8 8 7 7 7 7 6 6 6 6 6 5
7 8 8 8 8 8 9 9 9 9 9 10 10 11 11 11 12 12 12 11 11 11 11 10 10 10 9 9 8 8 8 8 7 7 7 6 6 6 6 6 5 5 5
7 7 7 7 7 8 8 8 8 9 9 9 9 10 10 10 11 11 11 11 11 11 10 10 10 9 9 9 8 8 8 7 7 7 6 6 6 5 5 5 5 4 4
6 6 7 7 7 7 7 8 8 8 9 9 9 9 9 10 10 10 11 11 11 10 10 9 9 9 9 8 8 8 7 7 7 6 6 6 5 5 5 4 4 4 3
6 6 6 6 6 7 7 7 7 8 8 8 8 9 9 9 10 10 10 10 10 10 9 9 9 8 8 8 7 7 7 6 6 6 5 5 5 5 4 4 3 3 3
6 6 6 6 6 6 6 6 7 7 7 8 8 8 9 9 9 9 9 9 9 9 9 8 8 8 7 7 7 7 6 6 6 5 5 5 4 4 4 3 3 2 2
5 5 5 5 5 6 6 6 6 7 7 7 8 8 8 8 8 9 9 9 9 9 8 8 8 7 7 7 6 6 6 5 5 5 5 4 4 4 3 3 2 2 1
Wind_Speed
7 6 6 5 5 4 4 4 4 3 3 2 2 2 2 1 1 0 1 1 1 1 1 2 1 1 1 1 2 2 2 2 2 1 1 1 1 1 2 2 2 2 1
7 6 6 5 4 4 4 4 3 3 3 2 2 2 2 1 1 1 1 1 1 1 1 1 1 1 1 1 2 2 2 2 3 2 0 0 1 1 1 1 2 3 2
6 7 6 6 6 6 6 5 4 3 3 2 1 2 2 2 1 1 1 1 2 2 2 2 2 2 2 2 2 2 2 2 2 2 1 0 1 1 1 1 2 2 3
7 7 8 8 8 7 6 5 4 4 3 3 2 3 2 2 2 1 1 1 1 1 1 2 2 3 3 3 2 3 2 3 3 3 1 1 1 1 1 1 2 2 2
7 9 10 8 7 6 6 5 4 4 4 3 3 2 2 2 2 2 2 2 1 1 0 0 1 3 4 3 3 3 3 3 3 2 2 1 1 1 0 0 1 1 2
8 9 8 7 7 7 7 6 5 5 4 3 3 3 3 3 3 4 4 2 2 1 1 1 1 1 1 2 4 4 5 4 4 3 2 2 1 2 1 1 1 1 1
6 7 7 7 8 8 7 6 7 6 5 4 4 4 4 5 5 5 5 4 3 2 2 1 0 0 1 1 2 2 2 4 5 5 4 4 3 4 3 2 2 1 1
5 6 6 7 8 8 7 8 8 6 6 6 5 5 5 5 7 6 6 4 3 2 2 2 2 1 1 3 3 2 2 1 2 3 3 3 3 3 4 3 3 1 0
5 6 7 7 8 8 9 10 8 7 7 6 5 6 6 6 7 7 6 4 3 3 2 2 2 2 3 4 4 3 2 1 2 4 4 3 3 4 4 4 3 2 1
7 7 7 7 8 9 10 10 7 7 8 7 7 7 7 7 8 9 8 4 4 3 2 2 3 3 3 4 4 4 3 1 2 3 4 4 4 4 4 3 3 3 1
8 7 6 7 8 9 8 7 7 8 7 7 7 7 7 8 8 10 10 6 6 4 3 3 2 4 4 5 5 4 4 4 3 4 4 4 4 3 3 3 2 2 2
7 7 7 7 7 7 7 7 7 8 8 8 7 6 6 6 8 9 12 11 9 6 5 4 3 5 5 4 4 5 6 6 4 4 4 3 3 2 3 4 5 6 6
8 8 8 7 7 6 6 7 6 7 8 8 8 8 7 5 6 10 11 12 12 7 5 6 6 6 5 4 5 6 6 4 4 4 3 2 1 2 2 3 4 6 7
9 9 8 7 7 6 6 6 7 8 8 9 9 9 7 6 6 6 6 7 9 7 5 6 7 7 5 5 5 4 3 4 4 4 3 2 2 2 3 2 2 2 3
9 9 8 7 7 6 7 7 9 9 10 10 10 10 9 10 12 14 11 8 8 8 7 4 3 3 4 3 3 3 3 4 4 3 4 3 3 3 2 2 2 3 3
9 9 7 7 6 6 6 6 9 9 12 14 13 12 11 12 13 17 16 15 14 16 9 5 5 5 6 5 5 4 3 3 3 4 4 4 3 4 3 3 3 3 3
9 10 8 7 7 6 6 7 7 7 8 10 13 14 14 14 15 17 17 16 17 17 7 7 7 7 6 6 6 5 4 3 3 4 4 4 4 4 4 4 3 3 3
10 11 10 7 7 7 7 7 7 7 6 6 8 12 14 15 16 17 17 13 10 10 6 8 8 8 7 7 6 5 5 5 4 4 4 4 4 4 4 4 3 3 3
9 8 8 7 7 7 7 7 7 8 7 6 3 5 10 12 13 16 17 9 10 10 8 8 8 8 7 7 7 6 6 6 6 5 5 5 5 4 4 4 4 4 3
9 14 12 8 7 7 6 7 7 7 7 7 8 7 6 6 7 10 10 9 10 10 10 9 8 8 8 8 8 7 7 6 6 5 5 5 5 5 5 5 4 3 2
8 10 14 10 7 8 7 8 8 8 8 9 9 9 12 9 11 12 11 11 10 10 10 9 9 9 9 8 8 9 9 7 7 6 6 6 6 5 4 4 4 3 3
8 8 8 9 8 8 8 8 8 8 9 9 7 8 14 9 8 9 10 10 10 9 9 10 9 9 10 10 10 10 9 8 8 7 7 6 6 5 5 4 4 3 3
9 10 10 9 8 10 10 8 8 9 9 9 8 8 9 10 9 9 10 9 9 9 8 9 10 9 8 9 10 10 10 10 9 10 9 7 6 6 5 5 5 4 3
10 10 10 10 9 9 9 9 9 9 10 9 9 10 10 10 10 10 9 9 9 9 9 9 10 12 13 11 10 10 11 12 12 11 11 9 8 6 5 5 4 4 3
9 10 10 10 9 9 10 10 10 10 10 9 9 9 9 10 9 9 9 10 11 11 11 11 10 12 16 15 13 13 16 18 16 13 11 8 8 7 6 6 4 3 3
10 10 10 9 9 10 10 10 10 10 10 9 9 10 10 10 10 10 10 11 11 11 11 10 12 14 16 15 17 19 20 20 19 17 13 8 8 7 6 5 5 4 3
Wind_Direction
203 204 206 211 214 216 224 238 244 254 263 267 276 294 303 313 315 234 219 192 161 183 176 168 186 177 166 168 162 153 154 151 158 230 259 295 14 29 11 24 42 49 26
204 202 209 210 207 213 227 238 236 246 257 256 264 280 284 288 287 235 236 196 181 190 193 168 189 167 164 171 164 160 162 164 160 173 248 7 20 3 1 19 28 46 28
201 201 209 211 209 217 226 230 230 235 250 259 253 258 264 273 266 244 209 198 200 207 201 187 195 167 176 173 161 159 164 154 148 149 166 58 36 40 39 28 32 22 22
202 205 211 215 214 218 222 221 222 222 228 240 245 252 254 256 250 235 190 179 180 200 197 190 195 194 195 185 174 174 158 137 131 133 133 94 77 43 68 53 27 14 3
205 212 221 219 214 214 218 219 218 218 225 226 231 255 258 243 230 207 193 174 162 153 108 218 213 206 200 189 181 177 159 149 142 140 141 126 131 131 139 59 40 353 357
216 223 226 217 214 215 217 214 213 220 226 220 222 232 244 241 227 201 178 173 172 177 218 273 285 278 200 186 183 178 175 171 168 163 167 168 187 186 165 150 143 62 351
231 233 226 217 219 221 217 210 214 217 215 219 225 221 233 245 234 211 188 168 176 193 210 231 269 24 141 126 122 123 158 181 181 167 168 188 188 192 171 165 169 161 211
245 244 234 222 225 223 213 216 219 212 209 216 222 220 225 241 231 215 195 172 178 198 208 208 209 247 190 153 127 100 79 65 170 166 175 191 196 184 176 169 162 143 41
268 257 244 227 228 223 219 221 218 208 212 213 214 212 217 238 233 216 192 166 184 207 215 211 203 215 216 163 139 136 110 53 78 108 121 120 122 137 147 133 133 126 78
283 270 261 237 229 228 226 223 215 209 214 211 214 212 213 226 230 217 195 173 186 202 210 227 223 207 205 173 156 154 162 185 113 97 82 70 70 74 94 127 149 146 143
292 283 267 250 240 236 229 222 211 208 208 210 215 217 216 221 227 219 199 185 191 190 199 212 225 204 183 171 162 169 184 159 127 115 99 79 67 62 57 60 82 135 147
299 287 273 259 249 246 229 223 212 203 205 211 215 223 224 223 220 221 207 198 190 185 198 202 201 180 163 156 161 163 152 134 118 111 100 85 77 65 55 62 72 75 82
309 295 282 272 255 245 230 222 212 205 208 213 211 220 226 218 219 217 208 199 190 185 190 183 173 157 143 133 132 140 137 130 128 124 126 114 85 77 78 77 66 73 67
307 302 292 280 269 252 240 228 217 212 213 214 214 218 219 211 210 206 200 195 186 180 171 157 142 130 119 116 108 109 115 134 140 138 133 116 90 82 73 74 77 59 65
308 303 298 284 271 257 244 236 230 226 217 214 218 212 206 215 215 197 186 187 182 174 150 131 130 133 132 119 105 98 101 115 121 122 124 120 110 99 76 64 77 72 80
312 308 300 291 281 265 254 263 255 247 239 229 220 211 216 214 200 191 190 186 175 164 151 161 170 170 169 166 155 141 128 131 134 135 131 131 127 117 101 76 76 91 95
302 301 298 289 283 271 255 248 261 272 258 238 226 216 212 204 195 189 185 179 174 166 166 177 179 180 178 172 167 161 162 159 147 140 138 137 132 123 116 108 102 96 92
299 300 299 285 278 271 258 249 244 244 250 253 236 221 213 204 195 187 174 161 173 179 183 182 184 181 177 174 171 164 155 147 143 144 141 139 138 135 130 127 123 119 113
297 297 295 288 279 272 264 252 244 241 242 241 235 223 208 197 188 183 171 179 184 189 189 185 181 177 174 172 168 163 160 159 155 151 149 145 143 136 134 135 132 125 114
290 297 304 294 286 279 270 258 246 240 239 231 224 216 186 174 185 187 190 190 189 189 186 184 180 175 171 168 165 161 157 157 155 152 152 150 146 143 145 144 143 141 137
289 293 300 296 281 274 268 258 248 239 237 235 231 215 195 198 198 195 194 194 193 190 184 180 175 173 169 164 162 162 161 163 163 159 156 152 150 146 144 144 146 144 141
285 286 283 282 281 276 269 260 249 241 237 236 236 217 202 206 202 197 197 197 192 186 178 173 173 173 171 168 166 164 165 166 165 161 156 154 151 149 146 145 146 145 144
283 283 283 278 279 278 274 263 252 243 238 234 224 212 206 210 207 201 197 191 182 175 169 167 166 165 164 164 165 166 169 172 169 163 158 156 155 155 153 154 156 155 160
280 280 279 276 275 276 273 265 256 247 238 231 223 213 209 210 207 200 192 182 176 171 168 168 167 166 162 160 162 163 163 161 159 160 156 156 157 157 155 156 161 165 172
280 277 275 273 270 270 272 266 258 251 240 232 225 216 209 206 204 197 186 178 172 170 168 165 163 163 163 160 159 160 159 156 156 156 154 152 154 157 158 160 164 167 179
281 276 274 272 269 268 268 264 258 251 241 233 224 215 207 203 197 190 181 174 171 168 165 165 163 161 161 162 161 159 158 157 156 155 154 150 152 158 159 163 168 174 182
Height
1494 1495 1495 1495 1496 1495 1495 1495 1494 1494 1493 1492 1491 1490 1489 1489 1488 1487 1486 1486 1485 1485 1485 1485 1485 1486 1487 1487 1488 1489 1490 1491 1492 1493 1494 1495 1496 1497 1498 1500 1501 1502 1503
1492 1492 1493 1493 1493 1493 1493 1493 1493 1492 1492 1491 1490 1490 1489 1488 1488 1487 1486 1485 1485 1485 1485 1485 1485 1485 1486 1487 1487 1488 1488 1489 1490 1491 1492 1493 1494 1495 1496 1498 1498 1499 1500
1489 1489 1490 1490 1491 1491 1491 1491 1491 1490 1490 1490 1489 1489 1488 1488 1487 1486 1486 1485 1485 1484 1484 1484 1484 1485 1485 1486 1486 1487 1487 1488 1489 1490 1491 1491 1493 1494 1495 1496 1496 1497 1498
1485 1486 1486 1487 1488 1488 1488 1489 1489 1488 1488 1488 1488 1487 1487 1487 1486 1486 1485 1485 1484 1484 1484 1484 1484 1484 1484 1485 1485 1486 1486 1487 1488 1489 1489 1490 1491 1492 1493 1494 1494 1495 1496
1481 1482 1482 1484 1485 1485 1486 1486 1486 1486 1486 1486 1486 1486 1485 1485 1485 1485 1485 1484 1484 1483 1483 1483 1483 1483 1483 1483 1484 1484 1485 1486 1486 1487 1488 1489 1490 1491 1492 1492 1493 1494 1494
1478 1478 1479 1480 1481 1482 1482 1483 1483 1483 1483 1483 1483 1483 1483 1483 1483 1483 1483 1483 1483 1483 1482 1482 1482 1482 1482 1482 1483 1483 1484 1485 1485 1486 1487 1488 1489 1490 1491 1491 1492 1492 1493
1475 1475 1475 1476 1477 1477 1478 1479 1479 1480 1480 1480 1481 1481 1481 1481 1481 1482 1482 1482 1482 1482 1481 1481 1481 1481 1481 1481 1482 1482 1483 1483 1484 1485 1486 1487 1488 1489 1489 1490 1490 1491 1491
1472 1471 1471 1471 1472 1473 1473 1474 1475 1476 1476 1477 1477 1478 1478 1478 1479 1479 1480 1480 1480 1480 1480 1480 1480 1480 1480 1480 1481 1481 1482 1482 1483 1484 1485 1486 1487 1487 1488 1488 1489 1489 1490
1468 1467 1467 1467 1467 1467 1468 1469 1470 1471 1472 1472 1473 1474 1474 1475 1476 1476 1477 1477 1477 1478 1478 1478 1478 1478 1479 1479 1480 1480 1480 1481 1482 1483 1484 1484 1485 1486 1486 1487 1487 1488 1488
1464 1463 1463 1462 1462 1462 1462 1463 1464 1465 1466 1468 1468 1470 1470 1471 1472 1473 1473 1474 1474 1474 1475 1475 1476 1477 1477 1477 1478 1478 1479 1479 1480 1481 1482 1483 1483 1484 1484 1485 1486 1486 1486
1460 1458 1457 1457 1457 1456 1456 1457 1458 1459 1461 1462 1463 1464 1465 1466 1467 1468 1469 1469 1470 1471 1472 1473 1473 1474 1475 1475 1476 1476 1477 1478 1478 1479 1480 1480 1481 1482 1483 1483 1484 1485 1485
1455 1453 1452 1451 1451 1450 1450 1451 1452 1453 1454 1455 1457 1458 1459 1461 1462 1463 1464 1465 1466 1467 1468 1469 1470 1471 1472 1473 1473 1474 1475 1476 1476 1477 1478 1479 1479 1480 1481 1482 1482 1482 1483
1450 1447 1446 1445 1444 1444 1444 1444 1445 1446 1447 1448 1449 1451 1453 1455 1456 1458 1459 1460 1461 1463 1464 1465 1467 1468 1469 1470 1471 1472 1472 1473 1474 1475 1476 1477 1478 1478 1479 1480 1480 1480 1480
1445 1442 1440 1439 1437 1437 1437 1437 1438 1438 1439 1440 1442 1443 1445 1447 1449 1451 1453 1455 1456 1458 1460 1461 1463 1464 1465 1466 1468 1469 1470 1471 1472 1473 1474 1475 1475 1476 1477 1478 1478 1478 1478
1440 1437 1434 1433 1431 1429 1429 1430 1430 1431 1432 1433 1434 1436 1438 1440 1442 1445 1446 1448 1450 1453 1455 1457 1458 1460 1461 1462 1464 1465 1466 1468 1469 1470 1471 1472 1473 1474 1475 1475 1476 1476 1476
1435 1431 1429 1426 1425 1423 1422 1421 1422 1423 1424 1426 1427 1429 1431 1433 1436 1438 1440 1443 1445 1448 1450 1451 1453 1455 1457 1458 1460 1461 1463 1464 1466 1467 1468 1469 1470 1471 1472 1472 1473 1473 1473
1431 1426 1423 1420 1418 1417 1415 1414 1413 1414 1415 1417 1419 1421 1423 1426 1428 1431 1433 1436 1439 1441 1443 1445 1448 1450 1452 1454 1456 1458 1459 1461 1462 1464 1465 1466 1467 1468 1468 1469 1469 1470 1470
1425 1421 1418 1414 1412 1410 1408 1407 1407 1406 1406 1406 1409 1412 1415 1417 1420 1423 1426 1429 1431 1433 1436 1439 1442 1444 1447 1449 1451 1453 1455 1457 1458 1460 1461 1462 1463 1464 1465 1466 1466 1466 1466
1418 1415 1411 1408 1406 1404 1402 1401 1400 1399 1399 1399 1401 1403 1406 1409 1412 1415 1418 1420 1422 1425 1428 1432 1435 1438 1441 1444 1446 1449 1451 1452 1454 1456 1457 1459 1460 1461 1461 1462 1462 1463 1463
1412 1408 1405 1402 1399 1397 1395 1393 1392 1392 1391 1392 1393 1395 1398 1400 1402 1405 1408 1411 1415 1418 1421 1425 1429 1432 1435 1438 1441 1443 1446 1448 1449 1451 1453 1454 1456 1457 1458 1458 1459 1459 1459
1405 1401 1399 1396 1393 1390 1388 1386 1385 1384 1384 1384 1385 1387 1389 1392 1394 1396 1399 1403 1407 1410 1414 1418 1422 1425 1429 1432 1435 1438 1440 1443 1445 1447 1449 1450 1452 1453 1454 1454 1455 1455 1456
1398 1395 1392 1389 1386 1383 1381 1379 1378 1377 1376 1377 1377 1379 1381 1384 1386 1388 1392 1395 1399 1404 1408 1412 1415 1419 1423 1426 1430 1433 1435 1438 1440 1442 1444 1446 1447 1449 1450 1451 1451 1452 1452
1391 1388 1384 1381 1379 1376 1373 1371 1370 1369 1368 1369 1370 1371 1373 1375 1378 1381 1384 1388 1392 1396 1401 1405 1409 1413 1417 1421 1424 1427 1430 1433 1435 1437 1439 1441 1443 1445 1446 1447 1447 1448 1449
1384 1380 1377 1374 1371 1368 1366 1364 1362 1361 1360 1361 1361 1362 1364 1367 1370 1373 1377 1381 1385 1389 1394 1398 1403 1407 1411 1415 1419 1422 1425 1428 1430 1433 1435 1437 1439 1440 1442 1443 1444 1444 1445
1376 1372 1369 1365 1362 1360 1357 1355 1354 1352 1352 1352 1353 1354 1356 1359 1362 1365 1369 1373 1378 1382 1387 1392 1397 1401 1406 1409 1413 1417 1420 1423 1426 1428 1430 1432 1434 1436 1437 1439 1440 1440 1441
1368 1364 1360 1357 1354 1351 1349 1347 1345 1344 1344 1344 1344 1346 1348 1350 1354 1357 1361 1365 1370 1376 1381 1386 1391 1396 1400 1404 1408 1412 1415 1418 1421 1424 1426 1428 1430 1432 1433 1435 1436 1437 1437